Wind_Speed
12 13 12 13 11 11 11 11 11 12 12 13 15 16 16 17 18 18 19 20 20 20 21 21 21 21 21 21 22 23 23 24 24 24 25 26 26 27 27 27 27 28 29
10 11 10 10 10 11 10 10 11 12 13 14 15 16 17 17 18 18 18 19 20 20 20 20 21 21 21 21 21 22 23 24 24 25 26 26 27 27 28 28 29 29 30
8 8 7 7 8 8 9 10 11 12 12 13 15 16 17 17 18 18 18 19 19 19 20 20 20 21 21 21 21 21 22 23 24 24 25 26 27 28 29 29 30 30 31
4 5 6 7 7 8 9 9 10 11 12 14 16 17 17 18 19 19 19 19 19 20 20 21 21 21 21 22 22 22 23 23 24 24 25 26 27 28 29 30 31 31 31
2 3 4 5 6 6 7 8 10 11 13 15 16 17 19 19 20 20 21 21 21 21 22 22 23 23 23 24 24 24 24 24 25 26 26 27 28 28 29 30 32 32 32
2 2 3 4 6 7 8 9 11 13 14 16 17 18 20 21 21 22 22 23 23 23 23 23 24 25 25 25 26 26 26 27 27 27 28 28 29 29 30 31 32 33 34
4 4 5 6 8 9 10 10 12 14 15 17 18 19 20 21 22 23 24 24 24 24 24 24 25 25 26 27 28 28 29 29 29 30 30 30 31 31 32 33 33 34 35
6 7 8 8 9 10 11 12 14 15 16 17 19 20 21 22 23 23 24 24 25 25 25 26 26 27 28 29 29 30 30 31 31 32 32 32 33 33 34 34 35 35 36
9 10 10 10 10 12 13 14 14 16 17 18 19 21 22 23 24 24 25 25 25 26 26 27 28 29 30 31 32 32 32 33 33 33 34 34 34 34 35 35 36 37 37
11 11 12 12 13 13 14 14 15 16 18 19 20 21 22 23 24 24 25 26 26 27 28 29 30 31 32 33 33 34 34 34 35 35 35 36 36 37 37 37 37 37 38
13 13 13 14 14 14 15 15 16 18 19 20 21 22 23 24 24 25 26 27 27 29 30 31 33 34 34 35 35 36 36 36 36 37 37 37 38 38 38 39 39 39 39
16 16 16 16 16 16 16 16 17 18 20 21 22 23 23 24 25 26 27 28 29 30 31 33 34 35 36 37 37 37 37 37 37 37 37 37 38 38 39 39 39 39 40
17 18 17 17 17 17 17 17 18 19 20 21 22 24 25 26 27 28 29 30 31 32 33 35 36 37 38 38 38 39 38 38 37 37 37 37 38 38 38 39 39 39 40
18 18 18 18 18 18 18 19 19 20 21 22 24 25 26 27 28 29 30 31 32 33 35 36 38 39 39 39 39 39 38 37 37 37 37 37 37 37 37 38 39 39 40
20 19 19 19 19 19 19 20 21 22 23 24 25 26 27 28 29 31 32 33 34 35 37 38 40 40 40 40 39 39 38 37 37 36 36 36 36 36 36 37 38 39 39
21 20 20 20 20 20 20 21 22 23 24 26 27 28 29 30 31 33 34 35 36 38 39 40 41 41 41 41 40 39 38 37 36 36 35 35 35 35 35 36 36 37 38
21 21 21 20 21 21 22 22 23 25 26 28 29 30 31 32 33 35 35 36 38 39 41 41 42 42 42 41 41 39 38 37 37 36 35 34 34 34 34 34 35 35 36
21 22 22 22 22 23 24 24 25 26 27 29 30 31 33 34 36 37 38 39 40 42 42 42 42 42 41 41 40 40 39 37 36 35 34 33 33 33 33 33 33 33 34
22 23 23 23 23 24 25 26 26 27 29 30 32 33 35 36 38 39 40 41 43 44 43 43 43 42 41 41 40 40 38 37 35 35 34 33 33 32 32 32 32 32 33
24 24 25 25 25 26 26 27 28 29 31 33 34 35 37 38 40 41 42 43 44 45 44 44 43 42 41 41 41 40 39 37 36 35 34 33 33 32 32 32 32 32 33
26 27 27 27 27 28 28 28 30 31 33 35 36 37 40 41 42 43 44 45 46 46 46 45 44 42 42 41 40 40 38 36 35 34 33 32 32 31 31 31 31 31 32
28 28 29 30 29 30 30 31 32 34 35 37 38 40 42 44 44 44 45 47 47 47 46 45 44 42 41 40 39 39 37 36 35 33 32 31 31 30 30 30 30 30 31
30 30 31 32 32 32 33 34 35 37 38 40 41 43 44 46 46 46 47 47 48 47 47 46 44 44 42 40 39 38 37 35 34 32 31 31 30 29 29 29 29 29 28
33 33 34 34 35 35 36 37 38 40 41 43 44 45 46 48 48 49 49 49 50 49 47 46 45 44 41 40 39 38 36 34 33 32 31 30 29 28 27 27 26 26 27
35 36 36 37 37 38 39 40 41 42 44 45 46 47 49 50 50 49 50 50 49 49 47 46 45 43 41 39 38 37 36 34 33 31 30 28 27 27 26 25 25 24 24
37 38 39 39 41 42 43 43 44 46 47 48 49 51 52 52 51 51 51 51 50 48 46 45 43 42 40 39 37 36 35 33 32 30 29 28 27 26 26 25 24 23 23
Wind_Direction
264 267 268 268 268 274 280 286 293 299 303 305 307 309 310 311 312 312 311 310 309 308 306 303 301 298 296 293 290 287 284 282 279 276 274 272 270 267 265 264 263 259 257
257 257 262 259 265 272 281 289 295 302 306 310 314 316 317 318 317 316 316 315 313 311 308 306 304 302 300 298 295 291 287 284 282 279 276 274 272 269 267 266 264 261 257
249 254 258 262 270 280 289 294 299 305 312 319 322 323 323 324 324 322 321 319 317 316 314 311 308 306 304 301 299 297 294 290 286 283 280 277 275 272 269 266 264 262 259
231 243 256 264 277 288 295 299 307 313 319 323 326 328 328 328 328 327 325 322 320 318 316 314 311 308 306 304 302 300 297 294 291 287 284 281 277 274 272 268 265 263 261
227 254 266 278 290 300 305 311 316 320 324 327 328 330 331 331 330 328 326 323 321 318 315 312 311 309 307 305 303 301 299 296 293 289 286 283 280 277 274 271 268 264 262
283 294 303 313 314 315 316 321 324 328 330 331 332 332 332 331 330 329 327 325 322 318 314 310 309 308 307 306 304 302 299 297 294 291 288 284 281 279 276 273 270 267 264
310 316 319 321 318 318 321 326 327 329 330 331 332 332 331 330 329 328 326 324 322 319 316 313 311 309 308 306 305 303 300 298 295 292 289 286 283 280 277 274 271 268 265
318 322 326 325 324 325 327 329 331 331 330 330 330 330 329 329 328 326 324 322 321 319 318 317 315 313 310 308 306 304 302 299 296 292 289 287 284 281 278 274 272 269 266
325 327 326 325 327 328 329 330 330 329 329 328 327 327 328 327 326 324 323 323 322 321 320 318 316 314 312 309 307 304 302 299 296 293 290 287 284 282 278 275 272 269 266
319 321 323 326 327 326 326 327 328 327 327 326 325 326 325 324 323 323 323 322 322 321 320 320 318 316 313 310 308 305 302 299 296 294 290 287 284 281 278 275 273 270 267
319 320 322 322 320 320 321 323 324 324 324 323 323 323 323 323 323 323 323 323 322 320 320 319 318 316 314 312 309 306 303 301 298 294 291 287 283 281 278 275 272 269 267
316 317 318 316 315 315 317 318 319 320 320 319 319 320 320 321 322 323 323 322 320 320 319 319 318 317 315 313 311 308 305 302 299 296 292 288 285 282 279 275 272 269 266
307 308 310 310 310 310 312 314 315 316 316 316 317 318 319 320 322 323 322 322 321 321 320 320 319 318 317 315 314 311 307 304 300 297 293 290 286 283 279 276 272 269 266
299 301 304 304 304 306 308 310 312 314 315 315 316 318 319 320 322 322 322 322 322 323 322 322 322 320 319 318 316 313 309 306 302 299 295 291 288 284 280 276 273 270 267
297 299 300 300 301 303 305 307 310 313 313 314 315 316 318 320 321 322 322 322 322 323 323 323 323 323 322 321 318 315 311 308 305 301 297 293 289 286 282 278 274 271 267
296 298 299 300 301 302 303 306 308 311 312 313 314 315 317 319 321 321 321 321 321 322 323 323 323 323 323 322 319 316 313 310 307 303 299 296 292 288 283 279 275 271 267
296 299 300 301 301 302 303 304 306 309 311 312 312 313 315 317 319 320 321 322 322 322 323 324 323 323 322 321 320 318 315 312 308 305 301 297 292 288 285 281 276 272 268
299 300 301 301 301 301 303 305 306 308 311 311 312 313 314 316 317 318 320 322 322 323 323 323 323 323 321 320 319 318 316 313 310 306 302 298 295 291 287 283 278 273 269
299 299 299 300 300 300 301 303 305 307 308 310 311 312 313 314 315 317 318 320 321 322 322 322 324 323 322 321 319 318 316 314 311 307 302 299 296 293 289 285 280 275 270
299 299 299 298 298 299 300 301 303 306 307 309 311 312 313 313 314 316 317 318 320 322 321 321 323 323 322 321 320 318 316 314 311 308 304 300 297 293 290 287 282 277 272
297 297 296 296 297 298 299 301 303 304 305 308 310 311 312 314 314 315 317 318 319 320 321 321 321 321 321 320 320 318 315 313 311 309 306 303 300 296 292 288 284 278 273
293 293 294 294 296 297 299 300 302 303 304 306 308 310 312 313 314 315 316 317 318 319 320 319 319 319 319 319 319 317 315 314 312 310 307 306 302 299 295 290 286 281 276
292 292 292 293 294 295 297 299 301 303 304 306 307 310 312 313 314 314 315 316 317 318 318 318 318 318 319 319 318 317 315 314 313 311 309 307 305 301 298 293 289 284 280
291 291 291 292 293 294 296 298 299 302 304 305 307 308 310 312 312 313 314 314 316 316 316 316 316 317 318 317 316 317 316 314 313 312 310 309 307 304 301 296 292 288 283
289 289 291 292 293 294 295 297 299 301 302 304 306 308 309 311 311 312 313 313 315 316 315 315 315 315 315 315 316 316 316 314 313 312 311 309 308 306 304 299 295 291 286
289 289 290 292 293 294 295 297 298 300 302 303 304 306 307 309 309 310 311 312 313 313 313 313 313 313 313 314 315 315 314 312 312 312 311 310 308 306 305 301 297 294 289
Height
5864 5865 5866 5866 5867 5867 5867 5867 5867 5866 5866 5865 5864 5862 5860 5859 5857 5855 5853 5851 5849 5847 5845 5843 5842 5840 5839 5838 5837 5836 5836 5835 5835 5835 5835 5835 5836 5836 5837 5838 5839 5841 5842
5861 5863 5864 5864 5865 5865 5866 5865 5865 5864 5864 5862 5861 5859 5857 5855 5853 5851 5849 5847 5845 5843 5841 5839 5837 5836 5834 5833 5832 5831 5830 5829 5829 5829 5829 5829 5830 5829 5830 5831 5832 5833 5835
5859 5861 5861 5862 5863 5863 5863 5863 5863 5862 5861 5860 5858 5856 5854 5852 5850 5848 5846 5844 5841 5839 5837 5835 5833 5832 5830 5829 5827 5826 5825 5823 5823 5822 5822 5822 5822 5822 5823 5823 5824 5825 5827
5858 5859 5860 5861 5861 5862 5861 5861 5861 5860 5859 5857 5855 5853 5851 5849 5847 5844 5842 5840 5838 5836 5834 5832 5830 5828 5826 5824 5823 5821 5819 5818 5817 5816 5815 5815 5814 5814 5815 5815 5816 5817 5819
5858 5859 5859 5859 5860 5860 5859 5859 5858 5857 5856 5854 5852 5850 5848 5846 5843 5841 5839 5837 5835 5832 5830 5828 5825 5823 5821 5819 5817 5815 5814 5812 5811 5809 5808 5808 5807 5806 5807 5807 5808 5809 5810
5858 5858 5858 5858 5858 5858 5857 5857 5856 5854 5853 5851 5849 5847 5845 5842 5840 5838 5835 5833 5831 5828 5826 5824 5821 5819 5816 5814 5812 5809 5807 5806 5804 5802 5801 5800 5800 5799 5799 5799 5799 5800 5801
5857 5857 5857 5856 5856 5856 5855 5854 5853 5852 5850 5848 5846 5844 5842 5839 5837 5834 5832 5829 5827 5824 5822 5819 5816 5813 5811 5808 5805 5803 5801 5798 5796 5795 5793 5792 5791 5790 5790 5790 5790 5790 5791
5856 5856 5855 5855 5854 5853 5852 5851 5850 5849 5847 5845 5843 5841 5839 5836 5834 5831 5828 5826 5822 5819 5816 5813 5811 5808 5805 5802 5799 5796 5793 5791 5788 5786 5784 5783 5782 5781 5780 5780 5780 5781 5782
5855 5854 5853 5853 5852 5851 5850 5848 5847 5846 5844 5842 5840 5838 5835 5833 5830 5827 5824 5821 5818 5815 5811 5808 5805 5802 5798 5795 5791 5788 5785 5782 5780 5777 5775 5773 5772 5771 5770 5770 5770 5771 5771
5853 5852 5851 5850 5849 5848 5847 5846 5844 5843 5841 5840 5837 5835 5833 5830 5827 5824 5820 5817 5813 5810 5806 5802 5799 5795 5791 5787 5783 5780 5777 5773 5770 5768 5766 5763 5762 5760 5759 5759 5758 5759 5760
5850 5849 5848 5847 5847 5846 5844 5843 5842 5840 5838 5836 5834 5832 5829 5826 5823 5820 5816 5812 5809 5804 5800 5796 5792 5788 5783 5779 5775 5771 5767 5763 5760 5757 5755 5752 5750 5749 5748 5747 5747 5747 5748
5847 5846 5846 5845 5844 5843 5842 5840 5839 5837 5835 5833 5831 5828 5825 5822 5819 5815 5811 5807 5803 5799 5794 5789 5785 5780 5775 5770 5766 5761 5757 5753 5750 5746 5743 5741 5739 5737 5735 5735 5734 5735 5735
5846 5845 5843 5842 5841 5840 5838 5837 5835 5833 5832 5829 5827 5824 5821 5817 5814 5810 5806 5801 5797 5792 5787 5782 5777 5771 5766 5761 5756 5751 5747 5742 5739 5735 5732 5729 5727 5725 5723 5722 5722 5722 5723
5844 5842 5841 5839 5838 5836 5835 5833 5831 5829 5827 5825 5822 5819 5816 5812 5808 5804 5800 5795 5790 5785 5780 5774 5768 5763 5757 5752 5746 5741 5736 5732 5728 5724 5720 5717 5715 5713 5711 5710 5709 5709 5710
5840 5838 5837 5836 5834 5833 5831 5829 5827 5825 5822 5820 5817 5814 5810 5807 5802 5798 5793 5788 5783 5778 5772 5766 5760 5754 5748 5742 5737 5732 5726 5721 5717 5713 5709 5706 5704 5701 5699 5698 5697 5697 5697
5836 5834 5833 5831 5830 5828 5826 5824 5822 5820 5817 5815 5811 5808 5804 5800 5796 5791 5787 5781 5776 5770 5764 5758 5751 5745 5739 5733 5727 5722 5717 5712 5707 5703 5699 5695 5693 5690 5688 5686 5685 5685 5685
5831 5830 5828 5827 5825 5823 5821 5819 5817 5815 5812 5809 5805 5802 5798 5794 5789 5784 5779 5774 5768 5762 5756 5749 5743 5736 5730 5724 5718 5712 5707 5702 5697 5692 5688 5685 5682 5679 5677 5675 5673 5673 5673
5826 5825 5823 5822 5820 5818 5816 5814 5811 5809 5806 5802 5799 5795 5791 5786 5782 5777 5771 5766 5760 5754 5748 5741 5734 5727 5721 5715 5709 5703 5697 5692 5687 5682 5678 5675 5671 5668 5666 5664 5663 5662 5662
5821 5820 5818 5816 5814 5812 5810 5807 5805 5802 5799 5795 5792 5788 5784 5779 5774 5769 5763 5758 5752 5745 5739 5732 5725 5718 5712 5706 5700 5694 5688 5683 5678 5673 5668 5665 5661 5658 5655 5654 5652 5651 5651
5815 5813 5812 5810 5808 5806 5803 5801 5798 5795 5791 5788 5784 5780 5775 5771 5765 5760 5754 5749 5743 5736 5730 5723 5716 5709 5703 5697 5690 5684 5679 5674 5669 5664 5659 5655 5651 5648 5645 5643 5642 5641 5640
5809 5807 5805 5803 5801 5798 5796 5793 5790 5787 5783 5779 5775 5771 5767 5762 5757 5751 5745 5740 5733 5727 5720 5714 5707 5700 5694 5688 5682 5675 5670 5665 5660 5655 5650 5646 5642 5638 5635 5633 5631 5629 5629
5802 5800 5798 5796 5793 5791 5788 5785 5782 5778 5775 5771 5767 5762 5757 5752 5747 5741 5736 5730 5723 5717 5711 5704 5698 5691 5685 5679 5673 5667 5661 5656 5651 5646 5641 5637 5633 5629 5626 5623 5621 5619 5618
5794 5792 5790 5787 5785 5782 5780 5777 5773 5769 5766 5762 5757 5752 5747 5742 5737 5731 5725 5720 5713 5707 5701 5695 5688 5682 5676 5670 5664 5659 5653 5647 5642 5637 5632 5628 5624 5620 5617 5613 5611 5609 5607
5786 5783 5781 5778 5776 5773 5770 5767 5764 5760 5756 5752 5747 5742 5737 5732 5727 5721 5715 5709 5703 5697 5690 5684 5678 5672 5666 5661 5655 5650 5644 5639 5634 5629 5625 5620 5615 5612 5608 5605 5602 5599 5598
5777 5774 5771 5769 5766 5763 5760 5757 5754 5750 5746 5741 5736 5731 5726 5721 5716 5710 5704 5699 5693 5686 5680 5675 5669 5663 5658 5652 5646 5641 5635 5630 5626 5621 5617 5612 5608 5604 5600 5597 5594 5592 5589
5767 5764 5761 5759 5755 5752 5749 5746 5742 5739 5734 5730 5725 5720 5715 5710 5704 5699 5694 5688 5682 5676 5670 5664 5659 5654 5648 5643 5638 5633 5627 5622 5618 5613 5609 5605 5601 5597 5593 5590 5587 5584 5582